Location: Proctor
(47.8934°N, 114.3048°W)
Time: 06:27:28
(UTC+00:00)

Envisat - Pass Details

Date: 29 May 2024
Orbit: 762 x 764 km, 98.3° (Epoch: 13 June)

Event Time Altitude Azimuth Distance (km) Brightness Sun altitude
Rises 09:26:58 0° 32° (NNE) 3,237 8.1 -16.0°
Reaches altitude 10° 09:30:43 10° 60° (ENE) 2,304 6.4 -15.7°
Maximum altitude 09:32:56 13° 86° (E) 2,109 5.7 -15.5°
Drops below altitude 10° 09:35:09 10° 113° (ESE) 2,296 5.5 -15.3°
Sets 09:38:51 0° 141° (SE) 3,215 6.0 -15.0°
